�������l�o���
Date,Time,MP-1(��Sv/h),MP-2(��Sv/h),MP-3(��Sv/h),MP-4(��Sv/h),MP-5(��Sv/h),MP-6(��Sv/h),MP-7(��Sv/h),MP-8(��Sv/h),����,����(m/s),���J
2019/06/13,00:00,0.735,1.060,0.724,1.320,0.960,0.426,0.746,0.708,�k��,2.5,��
2019/06/13,00:10,0.737,1.060,0.723,1.320,0.961,0.426,0.745,0.709,�k��,2.0,��
2019/06/13,00:20,0.737,1.059,0.723,1.320,0.960,0.427,0.745,0.710,�k��,2.5,��
2019/06/13,00:30,0.737,1.059,0.723,1.319,0.960,0.428,0.746,0.709,�k��,2.6,��
2019/06/13,00:40,0.736,1.060,0.724,1.319,0.960,0.428,0.744,0.710,�k��,1.7,��
2019/06/13,00:50,0.737,1.059,0.726,1.323,0.960,0.428,0.746,0.708,���k��,1.2,��
2019/06/13,01:00,0.736,1.058,0.725,1.320,0.960,0.427,0.745,0.709,���k��,0.9,��
2019/06/13,01:10,0.736,1.060,0.723,1.320,0.959,0.429,0.746,0.709,���쐼,0.9,��
2019/06/13,01:20,0.736,1.059,0.722,1.321,0.960,0.428,0.747,0.709,��,1.2,��
2019/06/13,01:30,0.738,1.059,0.722,1.320,0.960,0.427,0.746,0.711,���쐼,1.4,��
2019/06/13,01:40,0.738,1.060,0.723,1.318,0.962,0.427,0.747,0.708,���쐼,1.7,��
2019/06/13,01:50,0.738,1.059,0.725,1.320,0.961,0.427,0.746,0.709,�쐼,1.7,��
2019/06/13,02:00,0.736,1.059,0.723,1.319,0.961,0.427,0.745,0.710,�쐼,1.5,��
2019/06/13,02:10,0.736,1.059,0.723,1.321,0.959,0.427,0.745,0.711,�쐼,1.5,��
2019/06/13,02:20,0.735,1.058,0.724,1.318,0.961,0.428,0.745,0.709,�쐼,1.7,��
2019/06/13,02:30,0.735,1.059,0.724,1.320,0.960,0.428,0.746,0.707,�쐼,2.0,��
2019/06/13,02:40,0.735,1.060,0.723,1.321,0.961,0.427,0.748,0.709,��쐼,1.9,��
2019/06/13,02:50,0.737,1.059,0.724,1.319,0.959,0.428,0.745,0.709,��쐼,2.2,��
2019/06/13,03:00,0.736,1.059,0.722,1.319,0.959,0.428,0.746,0.709,��쐼,2.3,��
2019/06/13,03:10,0.737,1.058,0.723,1.319,0.959,0.428,0.745,0.707,��,2.6,��
2019/06/13,03:20,0.737,1.057,0.722,1.319,0.961,0.428,0.747,0.709,��,2.6,��
2019/06/13,03:30,0.736,1.059,0.723,1.318,0.958,0.427,0.747,0.707,��,2.5,��
2019/06/13,03:40,0.737,1.057,0.723,1.318,0.962,0.428,0.746,0.709,��,2.8,��
2019/06/13,03:50,0.737,1.059,0.724,1.321,0.959,0.428,0.746,0.708,��,2.0,��
2019/06/13,04:00,0.736,1.057,0.725,1.319,0.958,0.426,0.745,0.707,��,1.7,��
2019/06/13,04:10,0.738,1.057,0.725,1.317,0.958,0.427,0.747,0.707,��,2.5,��
2019/06/13,04:20,0.736,1.056,0.723,1.318,0.960,0.426,0.745,0.709,��,2.5,��
2019/06/13,04:30,0.736,1.057,0.723,1.319,0.959,0.429,0.746,0.707,��,2.0,��
2019/06/13,04:40,0.737,1.057,0.723,1.318,0.961,0.427,0.745,0.708,��쓌,2.0,��
2019/06/13,04:50,0.737,1.059,0.724,1.318,0.958,0.429,0.746,0.707,��쐼,1.2,��
2019/06/13,05:00,0.736,1.056,0.724,1.319,0.958,0.427,0.745,0.709,��,1.5,��
2019/06/13,05:10,0.737,1.057,0.722,1.319,0.958,0.428,0.747,0.708,�쐼,0.9,��
2019/06/13,05:20,0.735,1.058,0.723,1.319,0.959,0.428,0.745,0.710,��쐼,0.8,��
2019/06/13,05:30,0.736,1.059,0.723,1.316,0.960,0.428,0.746,0.708,-,CALM,��
2019/06/13,05:40,0.734,1.059,0.723,1.320,0.960,0.428,0.746,0.708,��쐼,1.2,��
2019/06/13,05:50,0.737,1.059,0.723,1.320,0.960,0.428,0.746,0.708,���쐼,1.1,��
2019/06/13,06:00,0.739,1.058,0.724,1.319,0.959,0.428,0.746,0.709,���쐼,0.6,��
2019/06/13,06:10,0.739,1.059,0.725,1.320,0.961,0.427,0.747,0.708,��,0.6,��
2019/06/13,06:20,0.739,1.058,0.724,1.320,0.961,0.428,0.746,0.709,�k�k��,0.6,��
2019/06/13,06:30,0.737,1.056,0.722,1.319,0.960,0.429,0.749,0.709,�k,1.1,��
2019/06/13,06:40,0.739,1.056,0.724,1.318,0.960,0.429,0.749,0.708,-,CALM,��
2019/06/13,06:50,0.737,1.058,0.724,1.319,0.962,0.428,0.749,0.711,��,0.6,��
2019/06/13,07:00,0.738,1.056,0.725,1.318,0.961,0.428,0.748,0.709,�k�k��,0.9,��
2019/06/13,07:10,0.738,1.057,0.724,1.320,0.960,0.425,0.749,0.709,�k�k��,1.1,��
2019/06/13,07:20,0.736,1.056,0.724,1.321,0.961,0.427,0.748,0.708,���k��,1.2,��
2019/06/13,07:30,0.738,1.057,0.724,1.320,0.961,0.426,0.749,0.710,���쓌,1.5,��
2019/06/13,07:40,0.738,1.055,0.723,1.319,0.961,0.427,0.746,0.709,���쓌,2.0,��
2019/06/13,07:50,0.737,1.056,0.726,1.320,0.959,0.426,0.747,0.709,��,2.3,��
2019/06/13,08:00,0.738,1.057,0.722,1.320,0.963,0.428,0.744,0.708,�k��,2.2,��
2019/06/13,08:10,0.738,1.055,0.726,1.319,0.962,0.428,0.745,0.707,��,1.7,��
2019/06/13,08:20,0.735,1.058,0.722,1.320,0.962,0.427,0.745,0.708,���k��,1.9,��
2019/06/13,08:30,0.737,1.056,0.723,1.321,0.961,0.427,0.747,0.708,��,1.7,��
2019/06/13,08:40,0.738,1.060,0.722,1.319,0.959,0.428,0.746,0.707,���쓌,2.5,��
2019/06/13,08:50,0.737,1.056,0.725,1.322,0.959,0.427,0.747,0.706,���쓌,1.7,��
2019/06/13,09:00,0.738,1.061,0.724,1.320,0.959,0.427,0.747,0.708,���쓌,2.9,��
2019/06/13,09:10,0.738,1.059,0.725,1.320,0.961,0.427,0.747,0.708,���쓌,2.9,��
2019/06/13,09:20,0.736,1.061,0.725,1.321,0.960,0.428,0.745,0.706,��,2.9,��
2019/06/13,09:30,0.737,1.062,0.722,1.322,0.961,0.428,0.747,0.707,���쓌,2.2,��
2019/06/13,09:40,0.739,1.063,0.723,1.322,0.961,0.429,0.748,0.707,���쓌,2.5,��
2019/06/13,09:50,0.740,1.062,0.723,1.321,0.963,0.429,0.746,0.707,���쓌,2.5,��
2019/06/13,10:00,0.739,1.061,0.723,1.321,0.962,0.428,0.747,0.707,�쓌,2.0,��
2019/06/13,10:10,0.740,1.064,0.724,1.319,0.964,0.428,0.747,0.708,���쓌,2.5,��
2019/06/13,10:20,0.741,1.065,0.725,1.322,0.960,0.427,0.748,0.708,���쓌,2.0,��
2019/06/13,10:30,0.741,1.064,0.724,1.323,0.963,0.429,0.749,0.709,���쓌,2.2,��
2019/06/13,10:40,0.739,1.062,0.722,1.322,0.958,0.429,0.749,0.708,���쓌,2.3,��
2019/06/13,10:50,0.741,1.063,0.724,1.322,0.960,0.430,0.749,0.707,��,2.5,��
2019/06/13,11:00,0.741,1.065,0.726,1.322,0.960,0.429,0.749,0.710,���쓌,2.3,��
2019/06/13,11:10,0.741,1.068,0.725,1.322,0.963,0.428,0.751,0.709,���쓌,2.6,��
2019/06/13,11:20,0.741,1.067,0.726,1.320,0.963,0.428,0.748,0.709,���쓌,2.2,��
2019/06/13,11:30,0.744,1.066,0.727,1.319,0.965,0.428,0.747,0.709,���쓌,2.3,��
2019/06/13,11:40,0.743,1.067,0.725,1.320,0.964,0.429,0.749,0.710,��쓌,2.8,��
2019/06/13,11:50,0.743,1.068,0.728,1.321,0.965,0.430,0.749,0.709,�쓌,2.8,��
2019/06/13,12:00,0.744,1.068,0.728,1.319,0.961,0.428,0.749,0.709,���쓌,4.2,��
2019/06/13,12:10,0.745,1.069,0.729,1.324,0.963,0.430,0.749,0.709,���쓌,2.6,��
2019/06/13,12:20,0.743,1.070,0.727,1.321,0.965,0.430,0.751,0.710,���쓌,4.2,��
2019/06/13,12:30,0.744,1.067,0.728,1.321,0.965,0.429,0.749,0.710,�쓌,2.3,��
2019/06/13,12:40,0.746,1.071,0.727,1.320,0.968,0.429,0.750,0.708,�쓌,3.0,��
2019/06/13,12:50,0.744,1.072,0.728,1.324,0.970,0.430,0.750,0.710,�쓌,3.8,��
2019/06/13,13:00,0.746,1.072,0.727,1.323,0.972,0.429,0.750,0.710,�쓌,5.0,��
2019/06/13,13:10,0.745,1.073,0.728,1.323,0.971,0.429,0.749,0.710,��쓌,4.8,��
2019/06/13,13:20,0.745,1.070,0.729,1.323,0.970,0.430,0.750,0.710,��쓌,5.5,��
2019/06/13,13:30,0.748,1.068,0.730,1.323,0.971,0.430,0.748,0.709,��쓌,6.4,��
2019/06/13,13:40,0.745,1.072,0.729,1.323,0.972,0.430,0.752,0.711,��쓌,6.7,��
2019/06/13,13:50,0.746,1.071,0.728,1.324,0.973,0.431,0.748,0.710,��쓌,7.3,��
2019/06/13,14:00,0.747,1.071,0.729,1.324,0.971,0.430,0.751,0.709,��쓌,7.7,��
2019/06/13,14:10,0.746,1.071,0.729,1.324,0.973,0.431,0.750,0.710,��쓌,7.8,��
2019/06/13,14:20,0.746,1.073,0.728,1.326,0.972,0.430,0.751,0.708,��쓌,8.2,��
2019/06/13,14:30,0.745,1.074,0.731,1.324,0.972,0.431,0.751,0.710,��쓌,6.6,��
2019/06/13,14:40,0.746,1.074,0.731,1.325,0.975,0.432,0.749,0.710,��쓌,5.2,��
2019/06/13,14:50,0.745,1.074,0.729,1.326,0.976,0.430,0.750,0.708,�쓌,5.9,��
2019/06/13,15:00,0.746,1.075,0.730,1.329,0.973,0.431,0.751,0.710,�쓌,6.6,��
2019/06/13,15:10,0.745,1.075,0.729,1.325,0.974,0.432,0.750,0.711,�쓌,5.8,��
2019/06/13,15:20,0.745,1.075,0.731,1.327,0.972,0.432,0.750,0.710,��쓌,7.4,��
2019/06/13,15:30,0.745,1.074,0.729,1.328,0.975,0.432,0.750,0.711,�쓌,5.6,��
2019/06/13,15:40,0.745,1.077,0.730,1.329,0.976,0.431,0.751,0.710,��쓌,5.3,��
2019/06/13,15:50,0.747,1.075,0.731,1.328,0.977,0.431,0.751,0.710,��쓌,7.9,��
2019/06/13,16:00,0.747,1.076,0.729,1.330,0.975,0.432,0.752,0.711,��쓌,7.2,��
2019/06/13,16:10,0.746,1.077,0.729,1.329,0.976,0.431,0.749,0.709,��쓌,7.8,��
2019/06/13,16:20,0.747,1.074,0.728,1.329,0.977,0.432,0.750,0.709,��쓌,8.4,��
2019/06/13,16:30,0.749,1.077,0.730,1.329,0.977,0.432,0.749,0.709,��쓌,8.5,��
2019/06/13,16:40,0.747,1.075,0.730,1.329,0.976,0.431,0.752,0.710,��쓌,7.3,��
2019/06/13,16:50,0.746,1.076,0.730,1.328,0.977,0.430,0.750,0.711,��쓌,8.4,��
2019/06/13,17:00,0.748,1.078,0.728,1.329,0.976,0.432,0.751,0.710,��쓌,9.6,��
2019/06/13,17:10,0.749,1.074,0.728,1.327,0.975,0.431,0.750,0.709,��쓌,7.8,��
2019/06/13,17:20,0.747,1.077,0.728,1.327,0.974,0.431,0.750,0.710,��쓌,7.8,��
2019/06/13,17:30,0.748,1.076,0.731,1.329,0.977,0.431,0.751,0.710,��쓌,9.2,��
2019/06/13,17:40,0.748,1.080,0.732,1.330,0.976,0.431,0.751,0.709,��쓌,9.8,��
2019/06/13,17:50,0.747,1.079,0.732,1.331,0.976,0.432,0.750,0.711,��쓌,9.5,��
2019/06/13,18:00,0.748,1.080,0.732,1.330,0.977,0.431,0.750,0.711,��쓌,9.5,��
2019/06/13,18:10,0.748,1.081,0.731,1.329,0.975,0.433,0.750,0.711,��쓌,9.0,��
2019/06/13,18:20,0.749,1.081,0.732,1.330,0.976,0.432,0.749,0.711,��,8.4,��
2019/06/13,18:30,0.748,1.079,0.732,1.332,0.975,0.432,0.749,0.713,��,7.9,��
2019/06/13,18:40,0.748,1.078,0.730,1.330,0.975,0.432,0.749,0.712,��,7.8,��
2019/06/13,18:50,0.747,1.079,0.730,1.331,0.973,0.432,0.748,0.713,��쓌,8.7,��
2019/06/13,19:00,0.749,1.081,0.730,1.332,0.974,0.431,0.749,0.713,��,9.3,��
2019/06/13,19:10,0.746,1.082,0.730,1.330,0.977,0.431,0.750,0.713,��,7.8,��
2019/06/13,19:20,0.748,1.080,0.731,1.332,0.976,0.432,0.752,0.713,��,7.2,��
2019/06/13,19:30,0.748,1.082,0.731,1.334,0.975,0.434,0.753,0.713,��,7.9,��
2019/06/13,19:40,0.750,1.081,0.733,1.333,0.976,0.434,0.753,0.710,��,6.8,��
2019/06/13,19:50,0.748,1.083,0.735,1.332,0.976,0.434,0.751,0.713,��,7.4,��
2019/06/13,20:00,0.750,1.081,0.732,1.333,0.978,0.432,0.752,0.713,��,7.9,��
2019/06/13,20:10,0.749,1.081,0.732,1.331,0.979,0.434,0.750,0.712,��,7.3,��
2019/06/13,20:20,0.750,1.081,0.734,1.334,0.979,0.433,0.752,0.712,��,7.9,��
2019/06/13,20:30,0.750,1.081,0.733,1.333,0.979,0.433,0.752,0.714,��,8.9,��
2019/06/13,20:40,0.750,1.083,0.734,1.331,0.979,0.433,0.752,0.711,��,8.8,��
2019/06/13,20:50,0.749,1.081,0.733,1.332,0.979,0.435,0.751,0.712,��,8.3,��
2019/06/13,21:00,0.750,1.080,0.733,1.333,0.977,0.433,0.752,0.711,��,7.1,��
2019/06/13,21:10,0.751,1.081,0.732,1.333,0.978,0.433,0.751,0.711,��,6.2,��
2019/06/13,21:20,0.750,1.082,0.733,1.333,0.977,0.434,0.754,0.712,��,6.6,��
2019/06/13,21:30,0.750,1.082,0.731,1.333,0.980,0.435,0.751,0.711,��,7.2,��
2019/06/13,21:40,0.751,1.080,0.733,1.333,0.978,0.433,0.752,0.713,��,7.4,��
2019/06/13,21:50,0.750,1.081,0.733,1.334,0.977,0.433,0.752,0.710,��,6.7,��
2019/06/13,22:00,0.750,1.081,0.732,1.331,0.977,0.434,0.752,0.714,��,6.6,��
2019/06/13,22:10,0.749,1.081,0.732,1.332,0.976,0.433,0.751,0.712,��,5.3,��
2019/06/13,22:20,0.749,1.079,0.733,1.333,0.977,0.432,0.752,0.712,��,5.0,��
2019/06/13,22:30,0.751,1.082,0.733,1.334,0.978,0.433,0.751,0.711,��,4.3,��
2019/06/13,22:40,0.750,1.078,0.733,1.333,0.978,0.434,0.751,0.711,��,4.9,��
2019/06/13,22:50,0.747,1.081,0.733,1.331,0.976,0.434,0.749,0.710,��,4.6,��
2019/06/13,23:00,0.750,1.081,0.733,1.333,0.978,0.433,0.752,0.712,��,4.0,��
2019/06/13,23:10,0.749,1.080,0.734,1.331,0.978,0.432,0.751,0.712,��,3.4,��
2019/06/13,23:20,0.748,1.078,0.732,1.331,0.976,0.434,0.751,0.710,��,4.6,��
2019/06/13,23:30,0.749,1.081,0.732,1.331,0.979,0.434,0.752,0.711,��,5.3,��
2019/06/13,23:40,0.747,1.081,0.734,1.331,0.978,0.432,0.750,0.712,��쓌,4.7,��
2019/06/13,23:50,0.748,1.078,0.731,1.334,0.976,0.433,0.753,0.712,��,4.0,��
